AirNav   Air Wisconsin Up To $57,000 Bonus
 
 1461 users online  

1D6 Hector Municipal Airport
Hector, Minnesota, USA

GOING TO HECTOR?


FAA INFORMATION EFFECTIVE 05 DECEMBER 2019

Location

FAA Identifier: 1D6
Lat/Long: 44-43-52.2000N 094-42-49.4000W
44-43.870000N 094-42.823333W
44.7311667,-94.7137222
(estimated)
Elevation: 1078.1 ft. / 328.6 m (surveyed)
Variation: 04E (1985)
From city: 1 mile S of HECTOR, MN
Time zone: UTC -6 (UTC -5 during Daylight Saving Time)
Zip code: 55342

Airport Operations

Airport use: Open to the public
Activation date: 03/1942
Control tower: no
ARTCC: MINNEAPOLIS CENTER
FSS: PRINCETON FLIGHT SERVICE STATION
NOTAMs facility: PNM (NOTAM-D service available)
Attendance: UNATTDD
FOR SVC CALL 320-848-2745.
Wind indicator: lighted
Segmented circle: no
Lights: SS-SR

Airport Communications

CTAF/UNICOM: 122.8
WX AWOS-3 at OVL (14 nm W): 119.275 (320-523-5924)
WX AWOS-3 at HCD (16 nm NE): 118.525 (320-587-3343)
WX ASOS at RWF (19 nm SW): 126.575 (507-644-3564)

Nearby radio navigation aids

VOR radial/distance  VOR name  Freq  Var
RWFr041/23.8REDWOOD FALLS VOR/DME113.3007E
DWNr200/24.1DARWIN VORTAC109.0007E
BDHr139/29.1WILLMAR VOR/DME113.7004E

 
NDB name  Hdg/Dist  Freq  Var  ID
GLENCOE263/26.840703EGYL --. -.-- .-..

Airport Services

Fuel available: 100LL
FOR FUEL CALL 320-848-2745.
Parking: tiedowns
Airframe service: NONE
Powerplant service: NONE
Bottled oxygen: NONE
Bulk oxygen: NONE

Runway Information

Runway 12/30

Dimensions: 2768 x 50 ft. / 844 x 15 m
Surface: asphalt, in good condition
Weight bearing capacity: 
Single wheel: 13.0
Double wheel: 18.0
Runway edge lights: non-standard
NSTD LGTS MOUNTED IN YELLOW CONES.
RUNWAY 12  RUNWAY 30
Latitude: 44-44.006665N44-43.739260N
Longitude: 094-42.972905W094-42.455592W
Elevation: 1078.0 ft.1077.8 ft.
Traffic pattern: leftleft
Runway heading: 122 magnetic, 126 true302 magnetic, 306 true
Markings: basic, in good conditionbasic, in good condition
Runway end identifier lights: nono
Touchdown point: yes, no lightsyes, no lights
Obstructions: 15 ft. road, 500 ft. from runway, 150 ft. right of centerline, 20:1 slope to clear17 ft. brush, 521 ft. from runway, 149 ft. left of centerline, 18:1 slope to clear
RWY 30 HAS 1 FT CROPS 104 FT R AND 103 FT L.

Runway 5/23

Dimensions: 2570 x 165 ft. / 783 x 50 m
Surface: turf, in good condition
Runway edge markings: 05/23 MKD WITH YELLOW CONES.
Operational restrictions: RY 05/23 NOT PLOWED WINTER MONTHS.
RUNWAY 5  RUNWAY 23
Latitude: 44-43.741298N44-43.994127N
Longitude: 094-43.180007W094-42.704300W
Elevation: 1077.1 ft.1077.2 ft.
Traffic pattern: leftleft
Markings: nonenone
Runway end identifier lights: nono
Touchdown point: yes, no lightsyes, no lights

Airport Ownership and Management from official FAA records

Ownership: Publicly-owned
Owner: CITY OF HECTOR
301 MAIN ST
HECTOR, MN 55342
Phone 320-848-2122
Manager: NIC HEIDERSCHEIDT
78980 ST HWY 4 SOUTH
HECTOR, MN 55342
Phone 320-848-2745

Airport Operational Statistics

Aircraft based on the field: 32
Single engine airplanes: 27
Helicopters: 1
Ultralights: 4
    
Aircraft operations: avg 134/week *
86% local general aviation
14% transient general aviation
* for 12-month period ending 30 September 2018

Additional Remarks

SEASONAL CROPS +8 FT IN PRIMARY SFC OF ALL RYS.
FOR CD CTC MINNEAPOLIS ARTCC AT 651-463-5588.

Instrument Procedures

There are no published instrument procedures at 1D6.

Some nearby airports with instrument procedures:

KOVL - Olivia Regional Airport (14 nm W)
KHCD - Hutchinson Municipal Airport-Butler Field (16 nm NE)
KRWF - Redwood Falls Municipal Airport (19 nm SW)
KLJF - Litchfield Municipal Airport (24 nm N)
KULM - New Ulm Municipal Airport (26 nm S)
 
Loc | Ops | Rwys | IFR | FBO | Links
Com | Nav | Svcs | Stats | Notes
Area around 1D6 (Hector Municipal Airport)
 
Road maps at: MapQuest Bing Google
 
Aerial photo
WARNING: Photo may not be current or correct
Aerial photo of 1D6 (Hector Municipal Airport)
Photo by Gary Bipes
Photo taken 16-Sep-2007

Do you have a better or more recent aerial photo of Hector Municipal Airport that you would like to share? If so, please send us your photo.

 
Sectional chart

 
Airport distance calculator
Flying to Hector Municipal Airport? Find the distance to fly.

From to 1D6

Sunrise and sunset
Times for 11-Dec-2019
 Local
(UTC-6)
 Zulu
(UTC)
Morning civil twilight07:1413:14
Sunrise07:4713:47
Sunset16:3722:37
Evening civil twilight17:1123:11

Current date and time
Zulu (UTC)  11-Dec-2019 16:48:40
Local (UTC-6)  11-Dec-2019 10:48:40
 
METAR
KOVL 
14nm W 
111559Z AUTO 00000KT 10SM CLR M21/M24 A3043 RMK AO2
KHCD 
17nm NE 
111636Z AUTO 00000KT 10SM CLR M21/M24 A3044 RMK AO2 T12061237
KRWF 
19nm SW 
111553Z AUTO 28004KT 10SM CLR M20/M23 A3044 RMK AO2 SLP338 T12001233
KLJF 
24nm N 
111635Z AUTO 28003KT 10SM M19/M23 A3043 RMK AO2
KULM 
26nm S 
111635Z AUTO 30003KT 10SM CLR M19/M23 A3045 RMK AO2
KGYL 
27nm E 
111559Z AUTO 32003KT 7SM CLR M20/M24 A3044 RMK AO2
TAF
KRWF 
19nm SW 
111130Z 1112/1212 33006KT P6SM SKC FM111900 18005KT P6SM SCT200 FM112100 13006KT P6SM OVC120 FM120000 12008KT P6SM SCT060 OVC090 FM120900 12008KT P6SM OVC015
NOTAMs
Click for the latest NOTAMs
NOTAMs are issued by the DoD/FAA and will open in a separate window not controlled by AirNav.

 

 
 

FBO, Fuel Providers, and Aircraft Ground Support

  
 Business Name 
 
 Contact 
 
 Services / Description 
 
Fuel Prices
 
Comments
  
Newberg Sky Spray 320-848-2745
no information available

If you are affiliated with Newberg Sky Spray and would like to show here your services, contact info, web link, logo, and more, click here
100LL
SS $4.50 
 Updated 27-Nov-2019
 
   write
SS=Self service
Update Fuel Prices
 

Would you like to see your business listed on this page?

 If your business provides an interesting product or service to pilots, flight crews, aircraft, or users of the Hector Municipal Airport, you should consider listing it here.  To start the listing process, click on the button below
 
Add a business
 

Other Pages about Hector Municipal Airport

Update a link
 
Copyright © AirNav, LLC. All rights reserved. Privacy Policy  Contact